Le nostre stazioni meteo in Italia

Pubblicità
Il mio iltempo24.it
Kleine Brogel, Belgio (6479): Temperatura & dewpoint: 07.12.2018 22:00:00 - 13.12.2018 22:00:00 (CET)Kleine Brogel, Belgio (6479): velocità del vento & gusts: 07.12.2018 22:00:00 - 13.12.2018 22:00:00 (CET)Kleine Brogel, Belgio (6479): direzione del vento: 07.12.2018 22:00:00 - 13.12.2018 22:00:00 (CET)Kleine Brogel, Belgio (6479): reduced air pressure: 07.12.2018 22:00:00 - 13.12.2018 22:00:00 (CET)Kleine Brogel, Belgio (6479): visibility: 07.12.2018 22:00:00 - 13.12.2018 22:00:00 (CET)
Data & Tempo tt [°C] td [°C] ff [km/h] ff [kn] fx [km/h] fx [kn] dd ppp [hPa] vv [km]
13.12.2018 22:00:00 -1,7 -3,3 7 4 - - NNE 1021,8 10
13.12.2018 21:00:00 -1,8 -3,6 7 4 14 8 NE 1021,6 12
13.12.2018 20:00:00 -0,3 -3,0 7 4 18 10 ENE 1021,1 18
13.12.2018 19:00:00 -0,2 -2,8 11 6 - - NE 1021,0 11
13.12.2018 18:00:00 -0,3 -3,0 11 6 14 8 NE 1020,7 18
13.12.2018 17:00:00 0,9 -3,1 11 6 18 10 NE 1020,8 20
13.12.2018 16:00:00 1,5 -2,8 11 6 - - ENE 1020,2 20
13.12.2018 15:00:00 2,6 -2,5 14 8 25 14 ENE 1020,2 20
13.12.2018 14:00:00 2,9 -3,1 11 6 29 16 E 1020,5 20
13.12.2018 13:00:00 2,7 -2,8 14 8 - - E 1020,7 20
13.12.2018 12:00:00 2,4 -2,1 14 8 29 16 E 1021,2 20
13.12.2018 11:00:00 1,2 -0,8 14 8 25 14 ENE 1021,7 12
13.12.2018 10:00:00 0,5 -0,5 14 8 - - ENE 1021,8 9
13.12.2018 09:00:00 -0,9 -1,5 7 4 11 6 ENE 1021,8 6
13.12.2018 08:00:00 -0,5 -1,1 7 4 14 8 ENE 1021,6 5
13.12.2018 07:00:00 -0,5 -1,0 11 6 - - ENE 1021,3 5
13.12.2018 06:00:00 -0,6 -1,1 11 6 18 10 ENE 1021,6 5
13.12.2018 05:00:00 -0,5 -1,0 7 4 11 6 ENE 1021,8 5
13.12.2018 04:00:00 -0,3 -0,9 7 4 - - E 1022,3 7
13.12.2018 03:00:00 -0,4 -1,1 7 4 14 8 ENE 1022,8 10
13.12.2018 02:00:00 -0,2 -1,2 7 4 14 8 ENE 1023,2 9
13.12.2018 01:00:00 -0,7 -1,3 7 4 - - ENE 1023,7 7
13.12.2018 00:00:00 -0,5 -1,3 7 4 14 8 ENE 1024,2 8
12.12.2018 23:00:00 -0,5 -1,1 7 4 11 6 ENE 1024,7 9
12.12.2018 22:00:00 0,3 -0,5 7 4 - - ENE 1024,9 9
12.12.2018 21:00:00 1,4 0,5 11 6 11 6 ENE 1025,0 10
12.12.2018 20:00:00 0,4 -0,3 4 2 7 4 N 1025,0 4,8
12.12.2018 19:00:00 0,6 -0,2 4 2 - - N 1025,2 10
12.12.2018 18:00:00 2,0 0,3 7 4 11 6 NE 1025,2 11
12.12.2018 17:00:00 2,9 1,0 4 2 7 4 N 1025,2 20
12.12.2018 16:00:00 3,6 1,9 7 4 - - ENE 1025,2 7
12.12.2018 15:00:00 3,7 2,4 7 4 14 8 ENE 1025,5 5
12.12.2018 14:00:00 3,7 2,4 7 4 14 8 E 1025,7 5
12.12.2018 13:00:00 3,0 2,9 4 2 - - - 1026,2 2,0
12.12.2018 12:00:00 2,2 2,1 4 2 7 4 N 1026,7 1,5
12.12.2018 11:00:00 0,8 0,8 2 1 4 2 - 1026,6 0,6
12.12.2018 10:00:00 -0,3 -0,4 4 2 - - - 1026,6 1,8
12.12.2018 09:00:00 -1,4 -1,4 2 1 4 2 - 1026,7 0,3
12.12.2018 08:00:00 -2,4 -2,4 4 2 4 2 N 1026,5 0,5
12.12.2018 07:00:00 -2,5 -2,7 4 2 - - N 1026,2 0,5
12.12.2018 06:00:00 -2,5 -2,9 4 2 0 0 N 1026,0 0,5
12.12.2018 05:00:00 -2,0 -2,7 4 2 4 2 N 1025,9 2,4
12.12.2018 04:00:00 -1,6 -2,2 4 2 - - N 1026,0 1,7
12.12.2018 03:00:00 -1,4 -2,3 4 2 4 2 N 1026,0 0,3
12.12.2018 02:00:00 -0,6 -1,1 4 2 4 2 N 1025,7 0,5
12.12.2018 01:00:00 0,2 -0,5 2 1 - - - 1025,7 0,3
12.12.2018 00:00:00 1,2 0,5 4 2 4 2 N 1025,7 2,6
11.12.2018 23:00:00 2,4 1,6 4 2 7 4 N 1025,5 11
11.12.2018 22:00:00 3,5 2,3 4 2 - - N 1025,7 19
11.12.2018 21:00:00 3,9 2,6 4 2 7 4 N 1025,7 20
11.12.2018 20:00:00 3,7 2,9 4 2 7 4 N 1025,5 20
11.12.2018 19:00:00 4,3 2,9 4 2 - - N 1025,4 20
11.12.2018 18:00:00 - - - - - - - - -
11.12.2018 17:00:00 5,0 1,9 7 4 7 4 - 1024,7 20
11.12.2018 16:00:00 - - - - - - - - -
11.12.2018 15:00:00 6,5 1,7 4 2 14 8 N 1024,9 20
11.12.2018 14:00:00 7,3 2,0 7 4 18 10 O 1025,0 20
11.12.2018 13:00:00 7,1 1,9 7 4 - - ONO 1025,2 20
11.12.2018 12:00:00 6,6 2,4 7 4 14 8 O 1025,7 20
11.12.2018 11:00:00 5,0 2,0 8 4 - - O - 10
11.12.2018 10:00:00 3,9 1,4 4 2 - - N 1025,5 20
11.12.2018 09:00:00 3,4 1,0 11 6 14 8 OSO 1025,4 20
11.12.2018 08:00:00 3,2 1,2 4 2 11 6 ONO 1025,4 19
11.12.2018 07:00:00 3,2 1,1 7 4 - - OSO 1025,2 19
11.12.2018 06:00:00 3,0 1,2 11 6 18 10 OSO 1025,2 19
11.12.2018 05:00:00 3,2 1,5 11 6 14 8 OSO 1025,4 17
11.12.2018 04:00:00 3,0 1,7 11 6 - - OSO 1025,5 17
11.12.2018 03:00:00 2,7 1,7 7 4 11 6 OSO 1025,5 15
11.12.2018 02:00:00 2,7 1,5 7 4 14 8 OSO 1025,5 17
11.12.2018 01:00:00 1,9 0,9 11 6 - - OSO 1025,7 18
11.12.2018 00:00:00 2,2 1,1 11 6 14 8 OSO 1025,5 16
10.12.2018 23:00:00 2,2 1,2 11 6 14 8 OSO 1025,5 19
10.12.2018 22:00:00 2,2 1,3 11 6 - - OSO 1025,5 18
10.12.2018 21:00:00 3,2 1,9 11 6 18 10 OSO 1025,4 20
10.12.2018 20:00:00 3,1 2,2 11 6 18 10 OSO 1025,0 20
10.12.2018 19:00:00 3,6 2,5 11 6 - - O 1025,1 20
10.12.2018 18:00:00 4,4 3,2 11 6 22 12 O 1024,9 20
10.12.2018 17:00:00 5,4 3,9 11 6 25 14 O 1024,5 12
10.12.2018 16:00:00 5,5 4,1 14 8 - - O 1023,8 20
10.12.2018 15:00:00 6,0 3,9 11 6 25 14 O 1023,3 20
10.12.2018 14:00:00 4,1 3,1 13 7 29 16 NNO 1023,6 4,0
10.12.2018 13:00:00 7,3 3,9 14 8 - - O 1023,0 20
10.12.2018 12:00:00 6,3 4,0 14 8 22 12 O 1023,2 20
10.12.2018 11:00:00 4,9 3,6 7 4 18 10 SO 1023,3 12
10.12.2018 10:00:00 4,0 3,3 11 6 - - ONO 1023,5 6
10.12.2018 09:00:00 3,5 3,0 13 7 14 8 SO 1022,7 6
10.12.2018 08:00:00 3,7 3,3 7 4 14 8 NO 1022,6 10
10.12.2018 07:00:00 3,5 2,9 7 4 - - O 1021,7 12
10.12.2018 06:00:00 4,1 3,4 18 10 36 19 OSO 1021,2 8
10.12.2018 05:00:00 4,1 3,7 14 8 25 14 OSO 1021,0 5
10.12.2018 04:00:00 4,1 3,2 18 10 - - O 1020,3 5
10.12.2018 03:00:00 5,5 2,4 18 10 29 16 O 1019,6 20
10.12.2018 02:00:00 5,5 2,0 11 6 25 14 O 1019,1 20
10.12.2018 01:00:00 5,4 2,6 14 8 - - O 1018,3 20
10.12.2018 00:00:00 5,9 3,3 18 10 36 19 O 1017,5 20
09.12.2018 23:00:00 6,1 4,2 18 10 29 16 O 1016,5 20
09.12.2018 22:00:00 6,0 4,4 13 7 - - O 1015,7 10
09.12.2018 21:00:00 6,3 4,3 15 8 32 18 O 1014,7 10
09.12.2018 20:00:00 6,8 4,7 15 8 32 18 O 1013,5 6
09.12.2018 19:00:00 6,9 4,8 14 8 - - O 1012,1 20
09.12.2018 18:00:00 7,1 5,4 18 10 32 18 O 1010,3 15
09.12.2018 17:00:00 7,2 4,5 18 10 36 19 O 1008,7 10
09.12.2018 16:00:00 8,1 5,6 14 8 - - O 1006,7 20
09.12.2018 15:00:00 8,5 5,8 14 8 29 16 O 1005,1 20
09.12.2018 14:00:00 8,5 6,7 13 7 43 23 ONO 1003,2 10
09.12.2018 13:00:00 8,6 7,2 18 10 - - OSO 1002,0 20
09.12.2018 12:00:00 7,4 6,1 18 10 36 19 OSO 1001,5 10
09.12.2018 11:00:00 7,5 5,5 26 14 47 25 O 1001,0 10
09.12.2018 10:00:00 7,9 6,3 25 14 - - OSO 1000,2 19
09.12.2018 09:00:00 8,5 5,0 29 16 50 27 OSO 999,6 20
09.12.2018 08:00:00 8,5 5,1 22 12 47 25 O 998,9 20
09.12.2018 07:00:00 8,1 5,7 25 14 - - O 998,5 20
09.12.2018 06:00:00 7,9 6,1 22 12 61 33 O 997,9 11
09.12.2018 05:00:00 8,6 5,7 32 18 47 25 OSO 997,2 20
09.12.2018 04:00:00 6,6 6,1 22 12 - - O 997,4 4,6
09.12.2018 03:00:00 9,0 5,5 35 19 54 29 OSO 997,1 10
09.12.2018 02:00:00 9,6 5,5 36 19 54 29 OSO 996,7 20
09.12.2018 01:00:00 9,6 6,6 29 16 - - OSO 996,4 18
09.12.2018 00:00:00 10,5 6,5 32 18 50 27 O 995,9 20
08.12.2018 23:00:00 10,8 7,3 32 18 65 35 OSO 996,1 20
08.12.2018 22:00:00 10,6 8,4 36 19 - - OSO 996,1 20
08.12.2018 21:00:00 9,8 8,6 37 20 58 31 SO 996,8 3,5
08.12.2018 20:00:00 9,3 8,3 32 18 58 31 SO 997,9 6
08.12.2018 19:00:00 8,9 7,8 32 18 - - SO 1000,2 20
08.12.2018 18:00:00 8,8 8,1 28 15 43 23 SO 1002,1 2,9
08.12.2018 17:00:00 10,3 5,6 29 16 54 29 OSO 1003,1 20
08.12.2018 16:00:00 10,6 4,5 29 16 - - OSO 1004,0 18
08.12.2018 15:00:00 10,5 4,2 29 16 50 27 OSO 1004,2 20
08.12.2018 14:00:00 10,3 4,1 29 16 54 29 OSO 1004,6 20
08.12.2018 13:00:00 10,0 4,3 29 16 - - OSO 1004,7 20
08.12.2018 12:00:00 9,1 4,9 29 16 54 29 SO 1005,0 20
08.12.2018 11:00:00 9,1 4,9 36 19 61 33 OSO 1004,8 20
08.12.2018 10:00:00 8,8 4,9 40 21 - - OSO 1004,6 19
08.12.2018 09:00:00 8,3 4,8 36 19 54 29 SO 1004,3 20
08.12.2018 08:00:00 7,4 4,9 25 14 50 27 SO 1005,0 20
08.12.2018 07:00:00 7,3 4,4 32 18 - - SO 1005,0 20
08.12.2018 06:00:00 7,4 4,4 32 18 50 27 SO 1005,1 20
08.12.2018 05:00:00 6,8 4,1 32 18 43 23 SO 1005,5 20
08.12.2018 04:00:00 6,0 3,8 25 14 - - SO 1006,0 20
08.12.2018 03:00:00 5,9 3,5 21 11 32 18 SO 1006,7 10
08.12.2018 02:00:00 6,0 3,5 22 12 36 19 SO 1007,1 20
08.12.2018 01:00:00 5,9 3,1 22 12 - - SO 1007,1 20
08.12.2018 00:00:00 5,8 3,2 22 12 40 21 SO 1006,7 20
07.12.2018 23:00:00 6,0 4,3 25 14 36 19 OSO 1006,2 20
07.12.2018 22:00:00 5,6 4,0 25 14 - - OSO 1005,6 11

tt = Temperatura
td = dewpoint
ff = velocità del vento
fx = gusts
dd = direzione del vento
ppp = reduced air pressure
vv = visibility

Stazioni seguenti

WeatherPro
AMSI
MeteoEarth